Fort Lewis, WA

7:52 AM PST on February 22, 2018 (GMT -0800)
Gray Army Air Field

Weather History for KGRF - March, 2014

Change the Weather History Date:

Monday, March 17, 2014

  Actual Average Record
Temperature  
Mean Temperature 42 °F -  
Max Temperature 50 °F 53 °F 59 °F (1997)
Min Temperature 33 °F 36 °F 27 °F (2016)
Degree Days  
Heating Degree Days 23    
Moisture  
Dew Point 34 °F    
Average Humidity 72    
Maximum Humidity 99    
Minimum Humidity 47    
Precipitation  
Precipitation 0.00 in - - ()
Sea Level Pressure  
Sea Level Pressure 30.25 in    
Wind  
Wind Speed 10 mph (SSW)    
Max Wind Speed 16 mph    
Max Gust Speed 21 mph    
Visibility 10 miles    
Events      
Averages and records for this station are not official NWS values.
T = Trace of Precipitation, MM = Missing Value Source: NWS Daily Summary

Daily Weather History Graph

Daily Weather History Graph

Search for Another Location

Airport or City:

Trip Planner

Search our weather history database for the weather conditions in past years. The results will help you decide how hot, cold, wet, or windy it might be!

Date:

Astronomy

Mar. 17, 2014 Rise Set
Actual Time 7:19 AM PDT 7:18 PM PDT
Civil Twilight 6:48 AM PDT 7:49 PM PDT
Nautical Twilight 6:13 AM PDT 8:25 PM PDT
Astronomical Twilight 5:36 AM PDT 9:01 PM PDT
Moon 8:48 PM PDT (3/17) 7:32 AM PDT (3/17)
Length of Visible Light 13h 00m
Length of Day
11h 59m
Full, 99% of the Moon is Illuminated
Mar 17
Full
Mar 23
Last Quarter
Mar 30
New
Apr 7
First Quarter
Apr 15
Full

Hourly Weather History & Observations

Time (PDT) Temp. Windchill Dew Point Humidity Pressure Visibility Wind Dir Wind Speed Gust Speed Precip Events Conditions
12:58 AM 39.4 °F 33.8 °F 39.2 °F 99% 30.05 in 10.0 mi SE 8.1 mph - 0.00 in   Drizzle
1:58 AM 37.6 °F 33.1 °F 37.4 °F 99% 30.06 in 10.0 mi South 5.8 mph - 0.00 in   Drizzle
2:58 AM 37.6 °F 32.3 °F 37.4 °F 99% 30.08 in 10.0 mi SSW 6.9 mph - 0.00 in   Drizzle
3:58 AM 39.4 °F 32.3 °F 37.6 °F 93% 30.09 in 10.0 mi SW 11.5 mph - 0.00 in   Drizzle
4:58 AM 39.7 °F 32.3 °F 36.0 °F 86% 30.12 in 10.0 mi WSW 12.7 mph - 0.00 in   Drizzle
5:58 AM 39.7 °F 33.7 °F 35.4 °F 85% 30.15 in 10.0 mi SSW 9.2 mph - 0.00 in   Drizzle
6:04 AM 39.2 °F 32.0 °F 35.6 °F 87% 30.13 in 10.0 mi SW 11.5 mph - N/A   Clear
6:58 AM 37.8 °F 32.5 °F 35.2 °F 91% 30.19 in 10.0 mi ESE 6.9 mph - 0.00 in   Clear
7:58 AM 38.3 °F 33.9 °F 34.5 °F 86% 30.22 in 10.0 mi South 5.8 mph - N/A   Clear
8:58 AM 40.5 °F 35.8 °F 36.1 °F 85% 30.25 in 10.0 mi SE 6.9 mph - N/A   Clear
9:58 AM 44.6 °F 38.1 °F 33.8 °F 66% 30.27 in 10.0 mi SW 13.8 mph - N/A   Clear
10:58 AM 46.4 °F 40.1 °F 31.8 °F 57% 30.28 in 10.0 mi SW 15.0 mph 20.7 mph N/A   Clear
11:58 AM 48.4 °F - 32.0 °F 53% 30.29 in 10.0 mi SW 15.0 mph 19.6 mph N/A   Partly Cloudy
12:58 PM 48.4 °F - 28.9 °F 47% 30.29 in 10.0 mi SW 12.7 mph - N/A   Scattered Clouds
1:55 PM 50.0 °F - 32.0 °F 50% 30.27 in 10.0 mi SSW 13.8 mph - N/A   Scattered Clouds
1:58 PM 49.3 °F - 31.5 °F 50% 30.29 in 10.0 mi SSW 16.1 mph - N/A   Scattered Clouds
2:06 PM 50.0 °F - 32.0 °F 50% 30.27 in 10.0 mi WSW 16.1 mph - N/A   Partly Cloudy
2:58 PM 48.9 °F - 31.6 °F 51% 30.29 in 10.0 mi SW 16.1 mph 20.7 mph N/A   Clear
3:58 PM 48.7 °F - 32.9 °F 54% 30.31 in 10.0 mi SW 15.0 mph - N/A   Partly Cloudy
4:58 PM 49.5 °F - 31.5 °F 50% 30.31 in 10.0 mi WSW 12.7 mph - N/A   Partly Cloudy
5:58 PM 48.6 °F - 30.6 °F 50% 30.32 in 10.0 mi SW 10.4 mph - N/A   Clear
6:58 PM 46.4 °F 41.1 °F 30.0 °F 53% 30.32 in 10.0 mi SW 11.5 mph - N/A   Clear
7:58 PM 43.7 °F 39.1 °F 31.6 °F 63% 30.34 in 10.0 mi SW 8.1 mph - N/A   Clear
8:58 PM 38.8 °F 34.6 °F 32.5 °F 78% 30.35 in 10.0 mi SSE 5.8 mph - N/A   Clear
9:58 PM 37.8 °F 33.3 °F 32.9 °F 83% 30.36 in 10.0 mi SSE 5.8 mph - N/A   Clear
10:58 PM 34.5 °F 28.6 °F 32.5 °F 92% 30.36 in 10.0 mi SE 6.9 mph - N/A   Clear
11:58 PM 33.4 °F 26.6 °F 32.4 °F 96% 30.37 in 10.0 mi SE 8.1 mph - N/A   Clear